Natchez, MS

3:18 AM CST on November 18, 2019 (GMT -0600)
Hardy-Anders-Adams County

Weather History for KHEZ - September, 2019

Change the Weather History Date:

Friday, September 20, 2019

  Actual Average Record
Temperature  
Mean Temperature 82 °F -  
Max Temperature 90 °F 86 °F 97 °F (1972)
Min Temperature 73 °F 66 °F 46 °F (1938)
Cooling Degree Days 16    
Growing Degree Days 32 (Base 50)    
Moisture  
Dew Point 71 °F    
Average Humidity 78    
Maximum Humidity 93    
Minimum Humidity 50    
Precipitation  
Precipitation 0.00 in - - ()
Sea Level Pressure  
Sea Level Pressure 30.10 in    
Wind  
Wind Speed 6 mph (SE)    
Max Wind Speed 14 mph    
Max Gust Speed 23 mph    
Visibility 10 miles    
Events      
Averages and records for this station are not official NWS values.
T = Trace of Precipitation, MM = Missing Value Source: NWS Daily Summary

Daily Weather History Graph

Daily Weather History Graph

Search for Another Location

Airport or City:

Astronomy

Sep. 20, 2019 Rise Set
Actual Time 6:52 AM CDT 7:04 PM CDT
Civil Twilight 6:27 AM CDT 7:28 PM CDT
Nautical Twilight 5:59 AM CDT 7:57 PM CDT
Astronomical Twilight 5:30 AM CDT 8:25 PM CDT
Moon 11:16 PM CDT (9/20) 12:36 PM CDT (9/20)
Length of Visible Light 13h 01m
Length of Day
12h 12m
Waning Gibbous, 65% of the Moon is Illuminated
Sep 20
Waning Gibbous
Sep 21
Last Quarter
Sep 28
New
Oct 5
First Quarter
Oct 13
Full

Hourly Weather History & Observations

Time (CDT) Temp. Heat Index Dew Point Humidity Pressure Visibility Wind Dir Wind Speed Gust Speed Precip Events Conditions
12:56 AM 73.0 °F - 69.1 °F 87% 30.04 in 10.0 mi Calm Calm - N/A   Clear
1:56 AM 73.9 °F - 70.0 °F 87% 30.04 in 10.0 mi SE 5.8 mph - N/A   Clear
2:56 AM 73.9 °F - 71.1 °F 91% 30.04 in 10.0 mi SE 5.8 mph - N/A   Clear
3:56 AM 75.0 °F - 72.0 °F 90% 30.04 in 10.0 mi North - - N/A   Clear
4:56 AM 73.9 °F - 72.0 °F 93% 30.06 in 10.0 mi SSE 4.6 mph - N/A   Clear
5:56 AM 73.0 °F - 71.1 °F 93% 30.07 in 10.0 mi SE 5.8 mph - N/A   Clear
6:56 AM 73.0 °F - 71.1 °F 93% 30.08 in 10.0 mi SE 3.5 mph - N/A   Clear
7:56 AM 75.0 °F - 72.0 °F 90% 30.11 in 10.0 mi ESE 6.9 mph - N/A   Clear
8:56 AM 78.1 °F - 72.0 °F 81% 30.12 in 10.0 mi SE 10.4 mph - N/A   Partly Cloudy
9:56 AM 80.1 °F 84.2 °F 73.0 °F 79% 30.14 in 10.0 mi SSE 11.5 mph - N/A   Scattered Clouds
10:10 AM 80.6 °F 85.4 °F 73.4 °F 79% 30.15 in 10.0 mi SSE 11.5 mph - N/A   Mostly Cloudy
10:56 AM 82.0 °F 87.4 °F 73.0 °F 74% 30.14 in 10.0 mi Variable 6.9 mph - N/A   Mostly Cloudy
11:56 AM 84.0 °F 89.6 °F 72.0 °F 67% 30.13 in 10.0 mi SE 11.5 mph - N/A   Mostly Cloudy
12:05 PM 84.2 °F 90.9 °F 73.4 °F 70% 30.13 in 10.0 mi SE 9.2 mph - N/A   Scattered Clouds
12:56 PM 84.9 °F 90.7 °F 72.0 °F 65% 30.12 in 10.0 mi SSE 11.5 mph - N/A   Partly Cloudy
2:56 PM 89.1 °F 93.7 °F 69.1 °F 52% 30.07 in 10.0 mi ESE 12.7 mph 23.0 mph N/A   Partly Cloudy
3:56 PM 90.0 °F 94.5 °F 69.1 °F 50% 30.06 in 10.0 mi SE 13.8 mph 19.6 mph N/A   Partly Cloudy
4:56 PM 87.1 °F 90.6 °F 68.0 °F 53% 30.06 in 10.0 mi SE 9.2 mph - N/A   Mostly Cloudy
5:56 PM 84.0 °F 87.8 °F 69.1 °F 61% 30.07 in 10.0 mi South 3.5 mph - N/A   Clear
6:56 PM 80.1 °F 83.6 °F 71.1 °F 74% 30.09 in 10.0 mi SSW 3.5 mph - N/A   Scattered Clouds
7:56 PM 78.1 °F - 72.0 °F 81% 30.10 in 10.0 mi Calm Calm - N/A   Partly Cloudy
8:56 PM 75.9 °F - 72.0 °F 87% 30.12 in 10.0 mi Calm Calm - N/A   Partly Cloudy
9:56 PM 77.0 °F - 71.1 °F 82% 30.14 in 10.0 mi SSE 4.6 mph - N/A   Partly Cloudy
10:56 PM 73.9 °F - 70.0 °F 87% 30.15 in 10.0 mi SSE 4.6 mph - N/A   Clear
11:56 PM 73.0 °F - 69.1 °F 87% 30.14 in 10.0 mi Calm Calm - N/A   Clear